Weather History for Clermont County, Batavia, OH

Change the Weather History Date:

Friday, April 19, 2013

  Actual Average (KLUK) Record (KLUK)
Temperature  
Mean Temperature 58 °F -  
Max Temperature 75 °F 68 °F 86 °F (1976)
Min Temperature 41 °F 45 °F 27 °F (1983)
Degree Days  
Heating Degree Days 7    
Growing Degree Days 8 (Base 50)    
Moisture  
Dew Point 40 °F    
Average Humidity 67    
Maximum Humidity 93    
Minimum Humidity 41    
Precipitation  
Precipitation 0.62 in - - ()
Sea Level Pressure  
Sea Level Pressure 29.75 in    
Wind  
Wind Speed 13 mph ()    
Max Wind Speed 28 mph    
Max Gust Speed 38 mph    
Visibility 9.0 miles    
Events      
Averages and records for this station are not official NWS values.
T = Trace of Precipitation, MM = Missing Value Source: Averaged Metar Reports

Daily Weather History Graph

Daily Weather History Graph

Search for Another Location

Airport:

Trip Planner

Search our weather history database for the weather conditions in past years. The results will help you decide how hot, cold, wet, or windy it might be!

Date:

Astronomy

Apr. 19, 2013 Rise Set
Actual Time 6:54 AM EDT 8:18 PM EDT
Civil Twilight 6:26 AM EDT 8:46 PM EDT
Nautical Twilight 5:52 AM EDT 9:19 PM EDT
Astronomical Twilight 5:17 AM EDT 9:55 PM EDT
Moon 2:04 PM EDT (4/19) 3:06 AM EDT (4/19)
Length of Visible Light 14h 20m
Length of Day
13h 24m
First Quarter, 61% of the Moon is Illuminated
Apr 19
First Quarter
Apr 25
Full
May 2
Last Quarter
May 9
New
May 18
First Quarter

Hourly Weather History & Observations

Time (EDT) Temp. Windchill Dew Point Humidity Pressure Visibility Wind Dir Wind Speed Gust Speed Precip Events Conditions
12:14 AM 75.2 °F - 50.0 °F 41% 29.64 in 10.0 mi South 11.5 mph 23.0 mph N/A   Clear
12:34 AM 75.2 °F - 50.0 °F 41% 29.64 in 10.0 mi SSW 20.7 mph 25.3 mph N/A   Clear
12:55 AM 75.2 °F - 50.0 °F 41% 29.63 in 10.0 mi SSW 10.4 mph 19.6 mph N/A   Clear
1:14 AM 75.2 °F - 50.0 °F 41% 29.61 in 10.0 mi South 9.2 mph 20.7 mph N/A   Clear
1:35 AM 75.2 °F - 51.8 °F 44% 29.59 in 10.0 mi South 11.5 mph 23.0 mph N/A   Clear
1:54 AM 73.4 °F - 51.8 °F 47% 29.58 in 10.0 mi South 12.7 mph 25.3 mph N/A   Clear
2:14 AM 73.4 °F - 51.8 °F 47% 29.58 in 10.0 mi South 15.0 mph 25.3 mph N/A   Clear
2:35 AM 73.4 °F - 51.8 °F 47% 29.55 in 10.0 mi South 13.8 mph 21.9 mph N/A   Scattered Clouds
2:54 AM 73.4 °F - 51.8 °F 47% 29.54 in 10.0 mi South 10.4 mph 20.7 mph N/A   Mostly Cloudy
3:14 AM 73.4 °F - 51.8 °F 47% 29.54 in 10.0 mi South 15.0 mph 21.9 mph N/A   Mostly Cloudy
3:35 AM 73.4 °F - 53.6 °F 50% 29.53 in 10.0 mi SSW 10.4 mph 25.3 mph N/A   Overcast
3:54 AM 69.8 °F - 55.4 °F 60% 29.53 in 10.0 mi South 11.5 mph 21.9 mph N/A   Overcast
4:14 AM 68.0 °F - 59.0 °F 73% 29.53 in 7.0 mi South 10.4 mph 20.7 mph 0.02 in   Overcast
4:35 AM 66.2 °F - 60.8 °F 83% 29.51 in 7.0 mi South 11.5 mph 18.4 mph 0.05 in   Overcast
4:54 AM 64.4 °F - 60.8 °F 88% 29.48 in 7.0 mi South 12.7 mph 20.7 mph 0.07 in   Overcast
5:14 AM 64.4 °F - 60.8 °F 88% 29.46 in 7.0 mi South 11.5 mph 19.6 mph 0.02 in   Overcast
5:35 AM 64.4 °F - 60.8 °F 88% 29.46 in 7.0 mi WSW 8.1 mph 21.9 mph 0.04 in   Overcast
5:54 AM 64.4 °F - 60.8 °F 88% 29.49 in 1.0 mi WSW 15.0 mph 32.2 mph 0.40 in   Overcast
6:14 AM 57.2 °F - 53.6 °F 88% 29.53 in 7.0 mi West 12.7 mph 26.5 mph 0.02 in   Overcast
6:54 AM 50.0 °F - 46.4 °F 87% 29.59 in 7.0 mi West 19.6 mph 28.8 mph 0.14 in   Overcast
7:14 AM 48.2 °F - 44.6 °F 87% 29.61 in 10.0 mi West 18.4 mph 23.0 mph N/A   Overcast
7:35 AM 46.4 °F 40.1 °F 42.8 °F 87% 29.63 in 10.0 mi WNW 15.0 mph 27.6 mph N/A   Overcast
7:54 AM 46.4 °F 41.9 °F 42.8 °F 87% 29.65 in 5.0 mi West 9.2 mph 21.9 mph N/A   Overcast
8:15 AM 46.4 °F 41.1 °F 42.8 °F 87% 29.66 in 5.0 mi West 11.5 mph 19.6 mph N/A   Overcast
8:35 AM 44.6 °F 37.8 °F 42.8 °F 93% 29.66 in 2.5 mi WNW 15.0 mph 24.2 mph N/A   Overcast
8:54 AM 44.6 °F 38.1 °F 42.8 °F 93% 29.67 in 5.0 mi WNW 13.8 mph 19.6 mph N/A   Overcast
9:15 AM 44.6 °F 37.8 °F 42.8 °F 93% 29.68 in 10.0 mi West 15.0 mph 19.6 mph N/A   Overcast
9:35 AM 44.6 °F 40.2 °F 41.0 °F 87% 29.71 in 4.0 mi WNW 8.1 mph - N/A   Overcast
9:54 AM 42.8 °F 35.1 °F 41.0 °F 93% 29.73 in 1.8 mi West 16.1 mph 25.3 mph 0.01 in   Overcast
10:15 AM 42.8 °F 35.4 °F 39.2 °F 87% 29.75 in 10.0 mi WSW 15.0 mph 23.0 mph N/A   Overcast
10:54 AM 42.8 °F 34.8 °F 35.6 °F 76% 29.77 in 10.0 mi West 17.3 mph 26.5 mph N/A   Overcast
11:15 AM 42.8 °F 34.0 °F 33.8 °F 70% 29.77 in 10.0 mi West 20.7 mph 28.8 mph N/A   Overcast
11:34 AM 44.6 °F 37.8 °F 33.8 °F 66% 29.77 in 10.0 mi West 15.0 mph 27.6 mph N/A   Overcast
11:54 AM 44.6 °F 38.1 °F 35.6 °F 71% 29.78 in 10.0 mi West 13.8 mph 18.4 mph N/A   Overcast
12:15 PM 44.6 °F 36.9 °F 35.6 °F 71% 29.78 in 10.0 mi West 18.4 mph 31.1 mph N/A   Overcast
12:34 PM 46.4 °F 38.5 °F 33.8 °F 62% 29.78 in 10.0 mi WSW 21.9 mph 32.2 mph N/A   Overcast
12:54 PM 46.4 °F 37.5 °F 32.0 °F 57% 29.78 in 10.0 mi WSW 27.6 mph 38.0 mph N/A   Overcast
1:15 PM 44.6 °F 35.9 °F 32.0 °F 61% 29.79 in 10.0 mi West 23.0 mph 29.9 mph N/A   Overcast
1:34 PM 44.6 °F 37.2 °F 32.0 °F 61% 29.80 in 10.0 mi West 17.3 mph 27.6 mph N/A   Overcast
1:55 PM 44.6 °F 36.1 °F 32.0 °F 61% 29.81 in 10.0 mi West 21.9 mph 33.4 mph N/A   Overcast
2:15 PM 44.6 °F 37.8 °F 32.0 °F 61% 29.82 in 10.0 mi West 15.0 mph 21.9 mph N/A   Overcast
2:34 PM 44.6 °F 38.4 °F 32.0 °F 61% 29.82 in 10.0 mi West 12.7 mph 19.6 mph N/A   Overcast
2:55 PM 44.6 °F 37.2 °F 32.0 °F 61% 29.81 in 10.0 mi West 17.3 mph 24.2 mph N/A   Overcast
3:15 PM 44.6 °F 36.4 °F 32.0 °F 61% 29.83 in 10.0 mi WSW 20.7 mph 27.6 mph N/A   Overcast
3:34 PM 44.6 °F 37.2 °F 32.0 °F 61% 29.82 in 10.0 mi West 17.3 mph 24.2 mph N/A   Overcast
3:55 PM 44.6 °F 37.4 °F 32.0 °F 61% 29.83 in 10.0 mi WSW 16.1 mph 25.3 mph N/A   Overcast
4:14 PM 46.4 °F 39.0 °F 32.0 °F 57% 29.83 in 10.0 mi WSW 19.6 mph 25.3 mph N/A   Overcast
4:34 PM 44.6 °F 37.2 °F 32.0 °F 61% 29.83 in 10.0 mi WSW 17.3 mph 24.2 mph N/A   Overcast
4:55 PM 46.4 °F 39.8 °F 32.0 °F 57% 29.83 in 10.0 mi WSW 16.1 mph 25.3 mph N/A   Overcast
5:14 PM 46.4 °F 39.2 °F 32.0 °F 57% 29.85 in 10.0 mi West 18.4 mph 25.3 mph N/A   Overcast
5:34 PM 44.6 °F 37.4 °F 32.0 °F 61% 29.86 in 10.0 mi WNW 16.1 mph 23.0 mph N/A   Overcast
5:55 PM 44.6 °F 38.4 °F 32.0 °F 61% 29.87 in 10.0 mi West 12.7 mph 19.6 mph N/A   Overcast
6:14 PM 44.6 °F 37.4 °F 30.2 °F 57% 29.88 in 10.0 mi West 16.1 mph 24.2 mph N/A   Overcast
6:34 PM 44.6 °F 37.2 °F 30.2 °F 57% 29.89 in 10.0 mi West 17.3 mph 26.5 mph N/A   Overcast
6:55 PM 44.6 °F 36.4 °F 30.2 °F 57% 29.90 in 10.0 mi West 20.7 mph 26.5 mph N/A   Overcast
7:14 PM 44.6 °F 38.8 °F 30.2 °F 57% 29.91 in 10.0 mi West 11.5 mph 20.7 mph N/A   Overcast
7:34 PM 44.6 °F 37.4 °F 32.0 °F 61% 29.91 in 10.0 mi West 16.1 mph 24.2 mph N/A   Overcast
7:55 PM 42.8 °F 34.8 °F 32.0 °F 66% 29.92 in 10.0 mi West 17.3 mph 23.0 mph N/A   Overcast
8:14 PM 42.8 °F 37.5 °F 32.0 °F 66% 29.93 in 10.0 mi West 9.2 mph - N/A   Overcast
8:34 PM 41.0 °F 31.9 °F 32.0 °F 70% 29.95 in 7.0 mi West 19.6 mph 35.7 mph N/A   Overcast
8:55 PM 41.0 °F 35.2 °F 33.8 °F 76% 29.95 in 10.0 mi West 9.2 mph 17.3 mph N/A   Overcast
9:14 PM 41.0 °F 35.2 °F 33.8 °F 76% 29.96 in 10.0 mi West 9.2 mph - N/A   Overcast
9:34 PM 41.0 °F 36.4 °F 33.8 °F 76% 29.96 in 10.0 mi WSW 6.9 mph - N/A   Overcast
9:55 PM 41.0 °F 34.7 °F 32.0 °F 70% 29.97 in 10.0 mi WSW 10.4 mph - N/A   Overcast
10:14 PM 41.0 °F 35.2 °F 32.0 °F 70% 29.98 in 10.0 mi WSW 9.2 mph - N/A   Overcast
10:34 PM 41.0 °F 35.2 °F 32.0 °F 70% 29.99 in 10.0 mi WSW 9.2 mph - N/A   Scattered Clouds
10:55 PM 41.0 °F 34.3 °F 32.0 °F 70% 29.99 in 10.0 mi WSW 11.5 mph 16.1 mph N/A   Scattered Clouds
11:14 PM 41.0 °F 34.3 °F 32.0 °F 70% 29.99 in 10.0 mi WSW 11.5 mph 17.3 mph N/A   Clear
11:34 PM 41.0 °F 35.2 °F 32.0 °F 70% 30.00 in 10.0 mi WSW 9.2 mph - N/A   Mostly Cloudy
11:55 PM 41.0 °F 34.7 °F 32.0 °F 70% 30.00 in 10.0 mi WSW 10.4 mph - N/A   Overcast